Latham, NY

9:26 AM EST on February 10, 2016 (GMT -0500)
Albany International

Weather History for KALB - August, 2014

Change the Weather History Date:

Monday, August 11, 2014

  Actual Average Record
Temperature  
Mean Temperature 72 °F 71 °F  
Max Temperature 86 °F 81 °F 98 °F (1944)
Min Temperature 58 °F 61 °F 46 °F (1941)
Degree Days  
Heating Degree Days 0 0  
Month to date heating degree days 0 0  
Since 1 June heating degree days 12 57  
Since 1 July heating degree days 0 5  
Cooling Degree Days 7 6  
Month to date cooling degree days 71 75  
Year to date cooling degree days 491 441  
Since 1 June cooling degree days 456 411  
Growing Degree Days 22 (Base 50)    
Moisture  
Dew Point 58 °F    
Average Humidity 67    
Maximum Humidity 97    
Minimum Humidity 37    
Precipitation  
Precipitation 0.00 in 0.11 in 1.85 in (1955)
Month to date precipitation 0.61 1.36  
Year to date precipitation 25.81 24.05  
Sea Level Pressure  
Sea Level Pressure 30.11 in    
Wind  
Wind Speed 5 mph (SSE)    
Max Wind Speed 14 mph    
Max Gust Speed 18 mph    
Visibility 9 miles    
Events Fog    
T = Trace of Precipitation, MM = Missing Value Source: NWS Daily Summary

Daily Weather History Graph

Daily Weather History Graph

Search for Another Location

Airport or City:

Trip Planner

Search our weather history database for the weather conditions in past years. The results will help you decide how hot, cold, wet, or windy it might be!

Date:

Astronomy

Aug. 11, 2014 Rise Set
Actual Time 5:57 AM EDT 8:02 PM EDT
Civil Twilight 5:26 AM EDT 8:33 PM EDT
Nautical Twilight 4:48 AM EDT 9:11 PM EDT
Astronomical Twilight 4:06 AM EDT 9:52 PM EDT
Moon 8:25 PM EDT (8/11) 7:01 AM EDT (8/11)
Length of Visible Light 15h 07m
Length of Day
14h 05m
Full, 99% of the Moon is Illuminated
Aug 11
Full
Aug 17
Last Quarter
Aug 25
New
Sep 2
First Quarter
Sep 8
Full

Hourly Weather History & Observations

Time (EDT) Temp. Heat Index Dew Point Humidity Pressure Visibility Wind Dir Wind Speed Gust Speed Precip Events Conditions
12:51 AM 64.0 °F - 59.0 °F 84% 30.13 in 10.0 mi Calm Calm - N/A   Partly Cloudy
1:51 AM 62.1 °F - 57.9 °F 86% 30.13 in 10.0 mi WNW 3.5 mph - N/A   Partly Cloudy
2:51 AM 61.0 °F - 57.9 °F 90% 30.13 in 10.0 mi Calm Calm - N/A   Clear
3:51 AM 60.1 °F - 57.0 °F 90% 30.14 in 10.0 mi Calm Calm - N/A   Clear
4:51 AM 59.0 °F - 57.2 °F 94% 30.14 in 10.0 mi Calm Calm - N/A Fog Shallow Fog
5:51 AM 59.0 °F - 55.9 °F 90% 30.14 in 10.0 mi Calm Calm - N/A Fog Patches of Fog
6:14 AM 60.1 °F - 57.0 °F 90% 30.14 in 0.2 mi Calm Calm - N/A Fog Fog
6:29 AM 60.1 °F - 57.9 °F 93% 30.14 in 0.1 mi Calm Calm - N/A Fog Fog
6:40 AM 60.1 °F - 59.0 °F 96% 30.14 in 0.2 mi Calm Calm - N/A Fog Fog
6:44 AM 60.1 °F - 59.0 °F 96% 30.15 in 3.0 mi Calm Calm - N/A Fog Patches of Fog
6:51 AM - - - N/A% - - Calm Calm - N/A   Unknown
7:04 AM 61.0 °F - 59.0 °F 93% 30.15 in 10.0 mi NE 3.5 mph - N/A Fog Patches of Fog
7:12 AM 61.0 °F - 59.0 °F 93% 30.15 in 10.0 mi NNE 3.5 mph - N/A   Partly Cloudy
7:51 AM 64.0 °F - 60.1 °F 87% 30.15 in 10.0 mi Calm Calm - N/A   Partly Cloudy
8:51 AM 68.0 °F - 61.0 °F 78% 30.15 in 10.0 mi Calm Calm - N/A   Partly Cloudy
9:51 AM 73.0 °F - 61.0 °F 66% 30.15 in 10.0 mi Calm Calm - N/A   Partly Cloudy
10:51 AM 77.0 °F - 62.1 °F 60% 30.14 in 10.0 mi Calm Calm - N/A   Partly Cloudy
11:51 AM 79.0 °F - 59.0 °F 50% 30.13 in 10.0 mi SSE 4.6 mph - N/A   Partly Cloudy
12:51 PM 82.0 °F 82.4 °F 60.1 °F 47% 30.11 in 10.0 mi ESE 4.6 mph - N/A   Partly Cloudy
1:51 PM 84.0 °F 83.8 °F 59.0 °F 43% 30.10 in 10.0 mi SE 6.9 mph - N/A   Scattered Clouds
2:51 PM 84.0 °F 83.5 °F 57.9 °F 41% 30.08 in 10.0 mi South 6.9 mph - N/A   Mostly Cloudy
3:51 PM 86.0 °F 84.9 °F 57.0 °F 37% 30.07 in 10.0 mi SSW 9.2 mph - N/A   Mostly Cloudy
4:51 PM 84.9 °F 84.2 °F 57.9 °F 40% 30.06 in 10.0 mi South 8.1 mph - N/A   Mostly Cloudy
5:51 PM 84.0 °F 83.5 °F 57.9 °F 41% 30.05 in 10.0 mi South 11.5 mph - N/A   Mostly Cloudy
6:51 PM 82.0 °F 81.7 °F 57.0 °F 42% 30.05 in 10.0 mi South 8.1 mph - N/A   Mostly Cloudy
7:51 PM 80.1 °F 80.6 °F 57.9 °F 47% 30.06 in 10.0 mi SSE 8.1 mph - N/A   Mostly Cloudy
8:51 PM 77.0 °F - 59.0 °F 54% 30.06 in 10.0 mi SSE 10.4 mph - N/A   Mostly Cloudy
9:51 PM 75.9 °F - 55.9 °F 50% 30.07 in 10.0 mi SSE 9.2 mph - N/A   Mostly Cloudy
10:51 PM 73.4 °F - 57.2 °F 57% 30.07 in 10.0 mi SSE 11.5 mph - N/A   Mostly Cloudy
11:51 PM 71.6 °F - 57.2 °F 60% 30.08 in 10.0 mi SSE 9.2 mph - N/A   Mostly Cloudy